Hourly Weather Chambly

Today, 12 June, Saturday

Time Temperature Precipitation Wind Pressure Humidity
00:00 +15°C° 0 mm 1 mps 757 mmHg 82%
01:00 +13°C° 0 mm 0 mps 757 mmHg 83%
02:00 +14°C° 0 mm 1 mps 756 mmHg 84%
03:00 +13°C° 0 mm 1 mps 756 mmHg 85%
04:00 +13°C° 0 mm 1 mps 756 mmHg 87%
05:00 +14°C° 0 mm 1 mps 756 mmHg 84%
06:00 +16°C° 0 mm 1 mps 756 mmHg 81%
07:00 +18°C° 0 mm 1 mps 757 mmHg 78%
08:00 +18°C° 0 mm 2 mps 757 mmHg 73%
09:00 +20°C° 0 mm 2 mps 757 mmHg 67%
10:00 +21°C° 0 mm 2 mps 757 mmHg 62%
11:00 +23°C° 0 mm 2 mps 756 mmHg 55%
12:00 +24°C° 0 mm 2 mps 756 mmHg 49%
13:00 +25°C° 0 mm 2 mps 756 mmHg 42%
14:00 +25°C° 0 mm 2 mps 755 mmHg 42%
15:00 +25°C° 0 mm 1 mps 755 mmHg 42%
16:00 +25°C° 0 mm 1 mps 755 mmHg 42%
17:00 +24°C° 0 mm 2 mps 755 mmHg 50%
18:00 +21°C° 0 mm 2 mps 755 mmHg 58%
19:00 +20°C° 0 mm 3 mps 755 mmHg 66%
20:00 +18°C° 0 mm 3 mps 755 mmHg 67%
21:00 +17°C° 0 mm 3 mps 755 mmHg 69%
22:00 +16°C° 0 mm 3 mps 755 mmHg 70%
23:00 +16°C° 0 mm 2 mps 755 mmHg 70%

Tomorrow, 13 June, Sunday

Time Temperature Precipitation Wind Pressure Humidity
00:00 +15°C° 0 mm 2 mps 755 mmHg 70%
01:00 +15°C° 0 mm 1 mps 755 mmHg 71%
02:00 +14°C° 0 mm 1 mps 755 mmHg 71%
03:00 +14°C° 0 mm 1 mps 755 mmHg 71%
04:00 +14°C° 0 mm 1 mps 756 mmHg 71%
05:00 +15°C° 0 mm 1 mps 756 mmHg 69%
06:00 +16°C° 0 mm 1 mps 756 mmHg 67%
07:00 +18°C° 0 mm 1 mps 756 mmHg 65%
08:00 +20°C° 0 mm 1 mps 756 mmHg 61%
09:00 +22°C° 0 mm 1 mps 756 mmHg 57%
10:00 +23°C° 0 mm 2 mps 756 mmHg 52%
11:00 +24°C° 0 mm 2 mps 756 mmHg 51%
12:00 +25°C° 0 mm 2 mps 755 mmHg 49%
13:00 +26°C° 0 mm 2 mps 755 mmHg 47%
14:00 +25°C° 0 mm 2 mps 755 mmHg 50%
15:00 +25°C° 0 mm 1 mps 755 mmHg 52%
16:00 +25°C° 0 mm 1 mps 754 mmHg 54%
17:00 +24°C° 0 mm 1 mps 754 mmHg 59%
18:00 +23°C° 0 mm 1 mps 754 mmHg 64%
19:00 +22°C° 0 mm 1 mps 754 mmHg 68%
20:00 +21°C° 0.3 mm 1 mps 754 mmHg 74%
21:00 +19°C° 0.3 mm 2 mps 754 mmHg 80%
22:00 +18°C° 0.3 mm 2 mps 754 mmHg 86%
23:00 +17°C° 0.1 mm 2 mps 754 mmHg 86%

Day after tomorrow, 14 June, Monday

Time Temperature Precipitation Wind Pressure Humidity
00:00 +17°C° 0.1 mm 2 mps 754 mmHg 87%
01:00 +16°C° 0.1 mm 2 mps 753 mmHg 87%
02:00 +16°C° 0 mm 2 mps 753 mmHg 87%
03:00 +16°C° 0 mm 2 mps 753 mmHg 87%
04:00 +15°C° 0 mm 1 mps 753 mmHg 88%
05:00 +16°C° 0 mm 1 mps 753 mmHg 86%
06:00 +18°C° 0 mm 1 mps 753 mmHg 84%
07:00 +19°C° 0 mm 1 mps 753 mmHg 82%
08:00 +20°C° 0 mm 1 mps 753 mmHg 78%
09:00 +20°C° 0 mm 2 mps 753 mmHg 74%
10:00 +21°C° 0 mm 2 mps 753 mmHg 70%
11:00 +23°C° 0.1 mm 2 mps 753 mmHg 68%
12:00 +24°C° 0.1 mm 2 mps 752 mmHg 66%
13:00 +25°C° 0.1 mm 3 mps 752 mmHg 65%
14:00 +24°C° 0.9 mm 3 mps 752 mmHg 70%
15:00 +24°C° 0.9 mm 3 mps 752 mmHg 76%
16:00 +22°C° 0.9 mm 3 mps 752 mmHg 81%
17:00 +21°C° 0.7 mm 3 mps 752 mmHg 83%
18:00 +20°C° 0.7 mm 3 mps 752 mmHg 85%
19:00 +19°C° 0.7 mm 3 mps 752 mmHg 87%
20:00 +18°C° 0.4 mm 3 mps 752 mmHg 90%
21:00 +17°C° 0.4 mm 3 mps 752 mmHg 93%
22:00 +16°C° 0.4 mm 3 mps 752 mmHg 95%
23:00 +16°C° 0.1 mm 3 mps 752 mmHg 95%

15 June, Tuesday

Time Temperature Precipitation Wind Pressure Humidity
00:00 +15°C° 0.1 mm 4 mps 752 mmHg 95%
01:00 +15°C° 0.1 mm 4 mps 752 mmHg 94%
02:00 +14°C° 0 mm 4 mps 752 mmHg 95%
03:00 +14°C° 0 mm 4 mps 752 mmHg 95%
04:00 +14°C° 0 mm 4 mps 752 mmHg 96%
05:00 +14°C° 0 mm 3 mps 753 mmHg 93%
06:00 +16°C° 0 mm 3 mps 753 mmHg 90%
07:00 +17°C° 0 mm 3 mps 753 mmHg 87%
08:00 +18°C° 0 mm 4 mps 754 mmHg 78%
09:00 +19°C° 0 mm 4 mps 754 mmHg 69%
10:00 +20°C° 0 mm 4 mps 754 mmHg 59%
11:00 +21°C° 0 mm 4 mps 754 mmHg 54%
12:00 +22°C° 0 mm 5 mps 754 mmHg 48%
13:00 +22°C° 0 mm 6 mps 754 mmHg 43%
14:00 +22°C° 0 mm 5 mps 754 mmHg 43%
15:00 +22°C° 0 mm 5 mps 754 mmHg 43%
16:00 +22°C° 0 mm 5 mps 754 mmHg 44%
17:00 +21°C° 0 mm 4 mps 754 mmHg 49%
18:00 +19°C° 0 mm 4 mps 754 mmHg 54%
19:00 +17°C° 0 mm 3 mps 755 mmHg 59%
20:00 +16°C° 0 mm 3 mps 755 mmHg 57%
21:00 +14°C° 0 mm 3 mps 755 mmHg 55%
22:00 +14°C° 0 mm 2 mps 755 mmHg 53%
23:00 +13°C° 0 mm 2 mps 755 mmHg 56%

16 June, Wednesday

Time Temperature Precipitation Wind Pressure Humidity
00:00 +12°C° 0 mm 2 mps 755 mmHg 58%
01:00 +12°C° 0 mm 2 mps 755 mmHg 60%
02:00 +10°C° 0 mm 3 mps 755 mmHg 63%
03:00 +10°C° 0 mm 3 mps 755 mmHg 65%
04:00 +8°C° 0 mm 4 mps 755 mmHg 68%
05:00 +10°C° 0 mm 4 mps 755 mmHg 66%
06:00 +12°C° 0 mm 5 mps 755 mmHg 64%
07:00 +13°C° 0 mm 5 mps 755 mmHg 63%
08:00 +15°C° 0 mm 5 mps 755 mmHg 59%
09:00 +16°C° 0 mm 5 mps 755 mmHg 56%
10:00 +19°C° 0 mm 5 mps 755 mmHg 53%
11:00 +19°C° 0 mm 5 mps 755 mmHg 56%
12:00 +19°C° 0 mm 4 mps 755 mmHg 58%
13:00 +19°C° 0 mm 4 mps 755 mmHg 60%
14:00 +19°C° 0.1 mm 3 mps 755 mmHg 62%
15:00 +19°C° 0.1 mm 3 mps 756 mmHg 63%
16:00 +19°C° 0.1 mm 2 mps 756 mmHg 65%
17:00 +19°C° 0 mm 2 mps 756 mmHg 67%
18:00 +18°C° 0 mm 3 mps 756 mmHg 69%
19:00 +18°C° 0 mm 3 mps 756 mmHg 72%
20:00 +17°C° 0 mm 3 mps 756 mmHg 72%
21:00 +16°C° 0 mm 3 mps 756 mmHg 73%
22:00 +14°C° 0 mm 3 mps 756 mmHg 74%
23:00 +14°C° 0 mm 2 mps 756 mmHg 76%

17 June, Thursday

Time Temperature Precipitation Wind Pressure Humidity
00:00 +14°C° 0 mm 2 mps 757 mmHg 77%
01:00 +13°C° 0 mm 2 mps 757 mmHg 79%
02:00 +13°C° 0 mm 2 mps 757 mmHg 79%
03:00 +11°C° 0 mm 3 mps 757 mmHg 80%
04:00 +11°C° 0 mm 3 mps 757 mmHg 80%
05:00 +12°C° 0 mm 3 mps 757 mmHg 76%
06:00 +15°C° 0 mm 2 mps 758 mmHg 71%
07:00 +16°C° 0 mm 2 mps 758 mmHg 67%
08:00 +18°C° 0 mm 2 mps 758 mmHg 61%
09:00 +20°C° 0 mm 3 mps 758 mmHg 55%
10:00 +21°C° 0 mm 3 mps 758 mmHg 49%
11:00 +22°C° 0 mm 3 mps 758 mmHg 47%
12:00 +23°C° 0 mm 4 mps 757 mmHg 44%
13:00 +25°C° 0 mm 5 mps 757 mmHg 42%
14:00 +25°C° 0 mm 5 mps 757 mmHg 45%
15:00 +23°C° 0 mm 5 mps 757 mmHg 48%
16:00 +23°C° 0 mm 5 mps 757 mmHg 51%
17:00 +22°C° 0 mm 4 mps 757 mmHg 54%
18:00 +20°C° 0 mm 3 mps 757 mmHg 58%
19:00 +19°C° 0 mm 3 mps 757 mmHg 61%
20:00 +18°C° 0 mm 3 mps 757 mmHg 62%
21:00 +18°C° 0 mm 3 mps 757 mmHg 62%
22:00 +17°C° 0 mm 4 mps 757 mmHg 62%
23:00 +15°C° 0 mm 4 mps 757 mmHg 62%
Show more

We Need Your Consent

Meteoprog and our Service Providers may store and access personal data such as cookies, device identifiers or other similar technologies on your device and process such data to personalise content and ads, as well as provide social media features and to analyse the traffic.

  • Store and/or access information on your device

    Cookies, device identifiers or other information can be stored or accessed on your device for the purposes indicated above.

  • Personalised ads and content, ad and content measurement, audience insights, and products development

    Ads and content can be personalised based on a profile. More data can be added to better personalise ads and content. Ad and content performance can be measured. Insights about the audience who saw the ads and content can be derived. Such data can be used to develop or improve user’s experience, systems and software.

By clicking ‘I Agree’ you will allow the use of indicated cookies, device identifiers, web beacons or other similar technologies. Your settings can be changed in the browser on your device.

For certain purposes, legitimate interests may be relied on, rather than consent. You can read more about this in our Privacy and Cookie Policy.